This demonstration page uses our WeatherBlox Daily Observations layout. Learn more.

Left ArrowRight Arrow

39.08367, -84.50855

Hourly Observations for March 26, 2019

Temp ( °F °C ) Dew Point ( °F °C ) Humidity (%) Winds ( mph kmh ) Pressure ( in mb ) Visibility ( mi km ) Precip ( " mm )
12:53 am 00:53 Clear 35 1.7 18 -7.8 50 50 N N/A 30.27 1025 10 16 N/A
1:53 am 01:53 Clear 33 0.6 17 -8.3 52 52 N 5 7 30.29 1026 10 16 N/A
2:53 am 02:53 Clear 31 -0.6 17 -8.3 56 56 NNE 7 11 30.31 1027 10 16 N/A
3:53 am 03:53 Clear 31 -0.6 17 -8.3 56 56 NNE 5 7 30.32 1027 10 16 N/A
4:53 am 04:53 Clear 30 -1.1 15 -9.4 54 54 N 5 7 30.32 1027 10 16 N/A
5:53 am 05:53 Clear 29 -1.7 15 -9.4 56 56 N 5 7 30.34 1027 10 16 N/A
6:53 am 06:53 Clear 29 -1.7 16 -8.9 58 58 N N/A 30.37 1028 10 16 N/A
7:53 am 07:53 Sunny 28 -2.2 15 -9.4 58 58 NNE 6 9 30.39 1029 10 16 N/A
8:53 am 08:53 Sunny 32 undefined 16 -8.9 52 52 NNE 8 13 30.41 1030 10 16 N/A
9:53 am 09:53 Sunny 36 2.2 15 -9.4 42 42 NE 9 15 30.42 1030 10 16 N/A
10:53 am 10:53 Sunny 39 3.9 16 -8.9 39 39 ENE 10 17 30.43 1031 10 16 N/A
11:53 am 11:53 Sunny 42 5.6 17 -8.3 36 36 E 14 22 30.43 1031 10 16 N/A
12:53 pm 12:53 Sunny 44 6.7 18 -7.8 35 35 N 7 11 30.42 1030 10 16 N/A
1:53 pm 13:53 Sunny 45 7.2 16 -8.9 31 31 NE 10 17 30.42 1030 10 16 N/A
2:53 pm 14:53 Sunny 47 8.3 18 -7.8 31 31 E 13 20 30.40 1030 10 16 N/A
3:53 pm 15:53 Sunny 49 9.4 19 -7.2 31 31 NE 9 15 30.39 1029 10 16 N/A
4:53 pm 16:53 Sunny 48 8.9 18 -7.8 30 30 ENE 12 19 30.38 1029 10 16 N/A
5:53 pm 17:53 Sunny 49 9.4 20 -6.7 32 32 NE 12 19 30.38 1029 10 16 N/A
6:53 pm 18:53 Sunny 48 8.9 20 -6.7 33 33 ENE 9 15 30.37 1029 10 16 N/A
7:53 pm 19:53 Sunny 43 6.1 22 -5.6 43 43 ENE 7 11 30.38 1029 10 16 N/A
8:53 pm 20:53 Clear 41 5 22 -5.6 47 47 N N/A 30.39 1029 10 16 N/A
9:53 pm 21:53 Clear 37 2.8 28 -2.2 70 70 N N/A 30.40 1030 10 16 N/A
10:53 pm 22:53 Clear 35 1.7 27 -2.8 72 72 N N/A 30.40 1030 10 16 N/A
11:53 pm 23:53 Clear 32 undefined 26 -3.3 79 79 N N/A 30.40 1030 10 16 N/A

Powered by AerisWeather